Hulianwang W. Digui 10-01

operational
NORAD ID: 65305 Int'l Des: 2025-187 Owner: ZXW Country: CN Constellation: xingwang
LEOCIRCULAR

Hulianwang W. Digui 10-01について

説明を読み込み中...

リアルタイム位置

3D地球を読み込み中...

次回通過

高度履歴

Altitude vs Time

uPlot chart will show altitude changes over time

軌道要素

1 65305U 25187A 25340.90416810 -.00000065 00000-0 12800-3 0 9991
2 65305 50.0029 175.4972 0000234 111.3040 248.7857 13.29331651 14124
Epoch: Dec 6, 2025 • Age: 13 hours

現在のステータス

高度 1150.2 km
速度 7.28 km/s
衛星直下点 -2.28°S, 59.46°W
打ち上げ日 Aug 25, 2025
運用期間 0.2 years
タイプ other

技術仕様

分類 Payload
質量 800.00 kg
乾燥質量 800.00 kg
総質量 800.00 kg
長さ 3.00 m
直径 1.00 m
スパン 10.00 m
形状 Box + 2 Pan
製造者 SECM
バスタイプ Guowang S
フェーズステータス In Orbit
所有者/国 ZXW/CN

大規模コンステレーション

Loading constellations...